Location: Glinica
(50.3048°N, 20.0798°E)
Time: 22:07:20
(UTC+00:00)

Daily predictions for brighter satellites

Satellite Brightness Start Highest point End
(mag) Time Altitude Azimuth Time Altitude Azimuth Time Altitude Azimuth
Cosmos 1607 4.2 15:05:26 10° SSW 15:11:42 66° ESE 15:18:06 10° NE
ATLAS 2AS CENTAUR R/B 3.4 15:07:07 10° NW 15:13:31 34° NNE 15:19:38 10° E
SL-8 R/B 4.3 15:10:22 10° W 15:15:05 60° SSW 15:19:47 10° ESE
Cosmos 1602 4.4 15:14:21 10° N 15:17:40 30° ENE 15:20:59 10° SE
RESURS DK-1 4.3 15:16:10 10° N 15:17:58 12° NNE 15:19:46 10° ENE
Cosmos 1943 3.5 15:12:43 10° NNW 15:18:09 46° NE 15:23:34 10° SE
CZ-4B R/B 4.4 15:16:17 10° ESE 15:20:20 25° ENE 15:24:20 10° N
Cosmos 1606 3.6 15:19:08 10° SSW 15:22:40 48° WNW 15:26:15 10° N
USA 305 2.6 15:18:52 10° WNW 15:22:41 87° NNE 15:26:33 10° ESE
Cosmos 1953 Rocket 4.0 15:23:42 10° NNW 15:28:10 69° W 15:32:32 10° S
SMAP 3.3 15:23:43 10° SE 15:28:11 49° ENE 15:32:42 10° N
SL-16 R/B 3.7 15:22:41 10° N 15:28:29 41° WNW 15:34:16 10° SW
Cosmos 1500 2.9 15:26:29 10° N 15:30:01 66° ENE 15:33:32 10° SSE
Cosmos 2297 Rocket 3.3 15:24:57 10° WSW 15:30:16 40° NW 15:35:36 10° NNE
Aureole 3 Rocket 3.6 15:26:19 10° NNW 15:30:56 57° W 15:34:24 10° S
Cosmos 2344 4.4 15:24:44 10° S 15:31:02 29° ESE 15:37:03 10° ENE
Helios 1B rocket 2.3 15:27:21 10° SSE 15:31:18 89° WSW 15:35:16 10° NNW
Cosmos 407 Rocket 4.0 15:26:35 10° NNW 15:31:22 36° NE 15:36:04 10° ESE
CZ-4B R/B 4.0 15:30:50 10° SE 15:34:13 40° ENE 15:37:40 10° N
Cosmos 2219 3.3 15:31:05 10° SSW 15:36:43 82° WNW 15:42:24 10° NNE
H-2A R/B 4.4 15:34:00 10° SSW 15:38:09 25° W 15:42:15 10° NW
Cosmos 2251 Rocket 3.9 15:33:47 10° NNW 15:38:55 44° ENE 15:44:01 10° SE
Cosmos 405 Rocket 2.9 15:37:26 10° SSW 15:41:15 72° WNW 15:45:07 10° N
ISS -1.8 15:41:41 10° W 15:44:41 30° SSW 15:47:40 10° SSE
Lacrosse 5 3.5 15:46:43 10° SSE 15:50:03 18° SE 15:52:30 13° E
Cosmos 1833 Rocket 4.3 15:47:15 10° N 15:50:20 15° NNE 15:52:05 13° NE
Cosmos 724 4.4 15:45:37 10° SW 15:51:49 90° SE 15:57:43 11° NE
Cosmos 2151 3.8 15:47:39 10° NNW 15:51:50 56° W 15:56:00 10° S
Cosmos 2082 3.7 15:46:14 10° SSW 15:51:51 86° ESE 15:57:31 10° NNE
COSMO-SKYMED 1 3.9 15:52:17 15° ENE 15:54:16 20° E 15:57:31 10° SE
Cosmos-2242 3.4 15:50:44 10° SSE 15:54:49 42° E 15:58:55 10° NNE
USA 234 4.0 15:50:14 14° ENE 15:55:22 36° SE 16:01:18 10° SSW
Lacrosse 4 Rocket 1.4 15:51:31 10° NNW 15:55:53 78° NE 16:00:09 10° SE
Cosmos 2058 Rocket 3.4 15:52:48 10° SSW 15:57:13 69° WNW 16:01:38 10° N
Meteor 1-25 Rocket 4.3 15:53:29 10° N 15:59:04 53° ENE 16:04:32 10° SSE
Cosmos 1023 Rocket 4.4 15:55:25 10° NNW 16:00:37 79° ENE 16:05:43 10° SSE
Cosmos 1190 Rocket 4.4 15:58:24 10° NNW 16:03:25 40° ENE 16:08:22 10° SE
Cosmos 1818 4.3 16:00:08 10° S 16:05:01 35° ESE 16:08:07 20° ENE
APEX 3.4 16:02:40 10° S 16:05:17 29° ESE 16:05:47 27° E
Cosmos 2221 4.3 16:02:57 10° ESE 16:04:18 14° ESE 16:04:18 14° ESE
Cosmos 1812 2.6 16:06:31 10° S 16:10:07 55° E 16:13:14 13° NNE
AQUARIUS 4.2 16:08:50 10° SSE 16:13:18 84° WSW 16:17:48 10° NNW
YAOGAN 11 4.5 16:09:17 10° N 16:13:49 70° WNW 16:18:20 10° SSW
CZ-2C R/B 4.2 16:12:39 10° SSW 16:16:00 38° W 16:19:24 10° NNW
USA 276 2.0 16:14:31 10° SW 16:16:51 44° SSE 16:17:13 40° SE
Cosmos 2263 Rocket 2.4 16:12:33 10° SW 16:18:06 72° WNW 16:23:22 12° NNE
Cosmos 1844 Rocket 3.5 16:13:42 10° SSE 16:18:26 30° ESE 16:20:21 24° ENE
Cosmos 1092 Rocket 4.2 16:15:24 10° SSE 16:21:12 46° E 16:27:02 10° NNE
Nadezhda 4 Rocket 3.9 16:15:08 10° S 16:21:16 81° E 16:27:25 10° NNE
USA 307 4.4 16:22:08 10° WNW 16:25:36 32° SW 16:28:59 10° SSE
Cosmos 1766 Rocket 4.1 16:21:56 10° N 16:25:56 33° ENE 16:29:52 10° SE
Cosmos 2227 4.2 16:20:52 10° SSW 16:26:33 64° ESE 16:30:34 20° NE
Cosmos 2227 Rocket 3.8 16:21:49 10° WSW 16:26:44 29° NW 16:31:40 10° NNE
Meteor 1-20 Rocket 4.3 16:21:40 10° NNW 16:27:15 83° W 16:32:55 10° S
Cosmos 2082 Rocket 4.1 16:25:13 10° N 16:27:15 12° NNE 16:27:31 12° NNE
Cosmos 1140 Rocket 3.8 16:23:01 10° NNW 16:28:11 67° WSW 16:33:16 10° S
YAOGAN 1 3.5 16:29:59 28° NE 16:29:59 28° NE 16:32:56 10° N
Meteor 1-5 Rocket 4.4 16:24:31 10° N 16:30:02 49° ENE 16:35:40 10° SSE
ADEOS 3.7 16:25:41 10° SE 16:30:43 51° ENE 16:35:46 10° N
Cosmos 1933 3.6 16:27:45 10° SSE 16:31:32 43° E 16:32:19 38° ENE
Cosmos 1603 3.9 16:32:43 10° NNW 16:38:25 74° WSW 16:44:02 10° SSE
CBERS 1 LM4 rocket 4.2 16:36:11 10° SSE 16:40:59 87° ENE 16:45:44 10° NNW
Cosmos 1428 Rocket 4.4 16:35:21 10° S 16:41:38 77° E 16:47:56 10° NNE
SKYMED 2 3.6 16:40:54 33° NE 16:42:40 57° E 16:46:56 10° S
Meteor 1-31 Rocket 4.4 16:39:33 10° SSW 16:42:57 34° W 16:46:22 10° NNW
CZ-4B R/B 3.7 16:44:59 35° NNE 16:44:59 35° NNE 16:47:52 10° N
SL-08 R/B 3.5 16:46:51 43° ENE 16:47:23 46° E 16:51:50 10° S
Cosmos 192 4.4 16:43:53 10° S 16:48:36 51° ESE 16:49:36 44° ENE
Meteor 2-17 Rocket 4.3 16:44:14 10° S 16:50:20 73° E 16:56:27 10° NNE
ATLAS CENTAUR R/B 4.0 16:48:08 10° WNW 16:52:29 43° SW 17:00:30 10° SSE
RESURS DK-1 2.5 16:52:37 10° NNW 16:56:12 53° NNE 16:56:12 53° NNE
Cosmos 676 Rocket 3.9 16:52:08 10° NNW 16:57:26 63° ENE 16:59:42 33° SE
Cosmos 1627 Rocket 4.4 16:51:44 10° S 16:58:01 81° E 17:04:26 10° NNE
CZ-4B R/B 4.1 16:53:44 10° S 16:58:42 55° WSW 17:03:34 10° NNW
EO 1 Delta rocket 4.3 16:53:20 10° SSE 16:59:50 67° ENE 17:05:02 10° N
Helios 1A 3.3 16:58:42 22° N 17:01:18 64° WNW 17:05:23 10° SSW
Cosmos 1782 2.8 16:58:06 10° SSW 17:02:01 77° W 17:03:03 47° N
Cosmos 1812 Rocket 4.3 16:58:15 10° SSW 17:02:29 52° WNW 17:06:22 12° N
ATLAS 2AS CENTAUR R/B 2.5 16:58:22 10° NW 17:05:22 84° NE 17:09:09 28° SE
NOAA 6 4.5 17:01:27 10° S 17:06:32 61° WSW 17:11:37 10° NNW
Radarsat Rocket 4.4 17:07:15 10° S 17:13:00 61° WSW 17:19:05 10° NNW
CZ-4B DEB 4.1 17:11:06 22° SSE 17:14:44 70° ENE 17:20:16 10° NNW
ADEOS Rocket 4.2 17:22:48 23° NNE 17:22:48 23° NNE 17:25:18 10° N
SME Rocket 4.4 17:21:34 10° SSE 17:27:22 86° WSW 17:36:33 10° NNW
Cosmos 1954 Rocket 4.3 17:22:56 10° NNW 17:28:10 67° WSW 17:31:28 23° S
Cosmos 2056 Rocket 3.4 17:23:12 10° SSW 17:28:37 83° ESE 17:28:45 81° E
COSMOS 2455 3.9 17:23:44 10° S 17:27:03 29° SSE 17:27:03 29° SSE
Timation 2 Rocket 3.7 17:23:44 10° SSW 17:29:43 84° ESE 17:30:41 65° NE
Cosmos 1844 3.6 17:24:07 10° SSW 17:29:54 83° ESE 17:30:24 74° NE
COSMO-SKYMED 1 3.3 17:29:31 38° NNW 17:30:43 50° WNW 17:34:55 10° SW
Lacrosse 5 2.0 17:27:17 10° SW 17:31:43 65° SSW 17:31:43 65° SSW
Cosmos 1833 Rocket 3.7 17:30:19 10° NNW 17:33:48 33° N 17:33:48 33° N
Meteor 1-14 Rocket 4.3 17:31:32 10° N 17:36:08 61° N 17:36:08 61° N
S3M 4.4 17:31:05 10° N 17:35:25 45° NNE 17:35:25 45° NNE
USA 234 3.1 17:37:35 62° NE 17:38:51 88° NNW 17:45:25 10° WSW
Cosmos 1553 Rocket 4.1 17:32:51 10° NNW 17:39:12 76° W 17:45:23 10° S
PAYLOAD B 4.3 17:42:07 65° N 17:42:07 65° N 17:46:52 10° NNW
Cosmos 2221 3.8 17:38:23 10° SSW 17:41:02 35° SW 17:41:02 35° SW
Cosmos 2344 3.6 17:37:16 10° SW 17:44:39 71° NW 17:47:05 45° NNE
Cosmos 1818 4.1 17:43:05 10° WSW 17:48:25 54° NW 17:48:46 53° NNW
Cosmos 1371 Rocket 4.4 17:47:44 10° SW 17:52:33 62° W 17:52:33 62° W
CZ-4B R/B 4.5 18:01:42 32° NNW 18:01:42 32° NNW 18:04:33 10° NNW
Cosmos 1844 Rocket 3.2 17:56:35 10° SW 18:02:03 54° NW 18:02:03 54° NW
Cosmos 2263 Rocket 4.3 17:59:05 10° W 18:03:03 19° NW 18:05:03 16° N
Cosmos 2082 Rocket 4.3 18:08:08 10° NNW 18:09:22 16° N 18:09:22 16° N
ATLAS 2AS CENTAUR R/B 4.3 18:50:07 10° WNW 18:55:31 26° WSW 18:56:38 24° SW
